Time,TemperatureF,DewpointF,PressureIn,WindDirection,WindDirectionDegrees,WindSpeedMPH,WindSpeedGustMPH,Humidity,HourlyPrecipIn,Conditions,Clouds,dailyrainin,SoftwareType,DateUTC
2013-03-09 00:00:00,22.8,22.6,30.38,SW,225,0.0,0.0,99,0.00,OVC,,0.00,WeatherDisplay:10.37,2013-03-09 05:00:00,
2013-03-09 00:01:00,22.8,22.6,30.38,SW,225,0.0,0.0,99,0.00,OVC,,0.00,WeatherDisplay:10.37,2013-03-09 05:01:00,
2013-03-09 00:02:00,22.8,22.6,30.39,NNW,338,0.0,0.0,99,0.00,OVC,,0.00,WeatherDisplay:10.37,2013-03-09 05:02:00,
2013-03-09 00:04:00,23.0,22.8,30.39,NE,45,0.0,0.0,99,0.00,OVC,,0.00,WeatherDisplay:10.37,2013-03-09 05:04:00,
2013-03-09 00:09:00,22.8,22.6,30.39,WSW,248,0.0,0.0,99,0.00,CLR,,0.00,WeatherDisplay:10.37,2013-03-09 05:09:00,
2013-03-09 00:14:00,22.8,22.6,30.39,WSW,248,0.0,0.0,99,0.00,CLR,,0.00,WeatherDisplay:10.37,2013-03-09 05:14:00,
2013-03-09 00:20:00,22.5,21.8,30.38,WSW,248,0.0,0.0,97,0.00,CLR,,0.00,WeatherDisplay:10.37,2013-03-09 05:20:00,
2013-03-09 00:25:00,21.9,21.4,30.38,WNW,292,0.0,0.0,98,0.00,CLR,,0.00,WeatherDisplay:10.37,2013-03-09 05:25:00,
2013-03-09 00:30:00,21.7,21.2,30.38,WNW,292,0.0,0.0,98,0.00,CLR,,0.00,WeatherDisplay:10.37,2013-03-09 05:30:00,
2013-03-09 00:35:00,22.1,21.9,30.38,NNE,22,0.0,0.0,99,0.00,CLR,,0.00,WeatherDisplay:10.37,2013-03-09 05:35:00,
2013-03-09 00:40:00,22.1,21.9,30.38,WNW,292,0.0,0.0,99,0.00,CLR,,0.00,WeatherDisplay:10.37,2013-03-09 05:40:00,
2013-03-09 00:45:00,21.9,21.7,30.38,NNE,22,0.0,0.0,99,0.00,CLR,,0.00,WeatherDisplay:10.37,2013-03-09 05:45:00,
2013-03-09 00:50:00,21.9,21.7,30.38,NNE,22,0.0,0.0,99,0.00,CLR,,0.00,WeatherDisplay:10.37,2013-03-09 05:50:00,
2013-03-09 00:55:00,21.9,21.7,30.38,WSW,248,0.0,0.0,99,0.00,CLR,,0.00,WeatherDisplay:10.37,2013-03-09 05:55:00,
2013-03-09 01:00:00,21.9,21.7,30.38,NNE,22,0.0,0.0,99,0.00,CLR,,0.00,WeatherDisplay:10.37,2013-03-09 06:00:00,
2013-03-09 01:05:00,21.6,21.4,30.38,NW,315,0.0,0.0,99,0.00,CLR,,0.00,WeatherDisplay:10.37,2013-03-09 06:05:00,
2013-03-09 01:10:00,21.9,21.7,30.38,NE,45,0.0,0.0,99,0.00,CLR,,0.00,WeatherDisplay:10.37,2013-03-09 06:10:00,
2013-03-09 01:15:00,21.4,21.2,30.39,WNW,292,0.0,0.0,99,0.00,CLR,,0.00,WeatherDisplay:10.37,2013-03-09 06:15:00,
2013-03-09 01:20:00,21.2,21.0,30.39,WNW,292,0.0,0.0,99,0.00,CLR,,0.00,WeatherDisplay:10.37,2013-03-09 06:20:00,
2013-03-09 01:25:00,21.2,21.0,30.39,ENE,68,0.0,0.0,99,0.00,CLR,,0.00,WeatherDisplay:10.37,2013-03-09 06:25:00,
2013-03-09 01:30:00,21.4,21.2,30.39,NNE,22,0.0,0.0,99,0.00,CLR,,0.00,WeatherDisplay:10.37,2013-03-09 06:30:00,
2013-03-09 01:35:00,21.0,20.8,30.39,West,270,0.0,0.0,99,0.00,CLR,,0.00,WeatherDisplay:10.37,2013-03-09 06:35:00,
2013-03-09 01:40:00,20.8,20.6,30.39,NW,315,0.0,0.0,99,0.00,CLR,,0.00,WeatherDisplay:10.37,2013-03-09 06:40:00,
2013-03-09 01:45:00,21.4,21.2,30.39,NNW,338,0.0,0.0,99,0.00,CLR,,0.00,WeatherDisplay:10.37,2013-03-09 06:45:00,
2013-03-09 01:50:00,21.2,21.0,30.39,NE,45,0.0,0.0,99,0.00,CLR,,0.00,WeatherDisplay:10.37,2013-03-09 06:50:00,
2013-03-09 01:55:00,21.4,21.2,30.39,East,90,0.0,0.0,99,0.00,CLR,,0.00,WeatherDisplay:10.37,2013-03-09 06:55:00,
2013-03-09 02:00:00,21.0,20.8,30.39,SE,135,0.0,0.0,99,0.00,CLR,,0.00,WeatherDisplay:10.37,2013-03-09 07:00:00,
2013-03-09 02:05:00,21.2,21.0,30.36,SW,225,0.0,0.0,99,0.00,CLR,,0.00,WeatherDisplay:10.37,2013-03-09 07:05:00,
2013-03-09 02:10:00,20.5,20.3,30.36,NNW,338,0.0,0.0,99,0.00,CLR,,0.00,WeatherDisplay:10.37,2013-03-09 07:10:00,
2013-03-09 02:15:00,20.8,20.6,30.36,NW,315,0.0,0.0,99,0.00,CLR,,0.00,WeatherDisplay:10.37,2013-03-09 07:15:00,
2013-03-09 02:20:00,20.7,20.5,30.36,WNW,292,0.0,0.0,99,0.00,CLR,,0.00,WeatherDisplay:10.37,2013-03-09 07:20:00,
2013-03-09 02:25:00,20.5,20.3,30.36,NW,315,0.0,0.0,99,0.00,CLR,,0.00,WeatherDisplay:10.37,2013-03-09 07:25:00,
2013-03-09 02:30:00,20.7,20.5,30.37,North,360,0.0,0.0,99,0.00,CLR,,0.00,WeatherDisplay:10.37,2013-03-09 07:30:00,
2013-03-09 02:35:00,20.3,20.1,30.37,NW,315,0.0,0.0,99,0.00,CLR,,0.00,WeatherDisplay:10.37,2013-03-09 07:35:00,
2013-03-09 02:41:00,20.5,20.3,30.36,NW,315,0.0,0.0,99,0.00,CLR,,0.00,WeatherDisplay:10.37,2013-03-09 07:41:00,
2013-03-09 02:46:00,20.5,20.3,30.36,ENE,68,0.0,0.0,99,0.00,CLR,,0.00,WeatherDisplay:10.37,2013-03-09 07:46:00,
2013-03-09 02:51:00,20.3,19.8,30.34,West,270,0.0,0.0,98,0.00,CLR,,0.00,WeatherDisplay:10.37,2013-03-09 07:51:00,
2013-03-09 02:56:00,20.3,19.6,30.34,SW,225,0.0,0.0,97,0.00,CLR,,0.00,WeatherDisplay:10.37,2013-03-09 07:56:00,
2013-03-09 03:01:00,19.8,19.6,30.34,WNW,292,0.0,0.0,99,0.00,CLR,,0.00,WeatherDisplay:10.37,2013-03-09 08:01:00,
2013-03-09 03:06:00,19.9,19.7,30.34,NW,315,2.2,2.7,99,0.00,CLR,,0.00,WeatherDisplay:10.37,2013-03-09 08:06:00,
2013-03-09 03:11:00,20.3,20.1,30.34,NNE,22,0.8,2.3,99,0.00,CLR,,0.00,WeatherDisplay:10.37,2013-03-09 08:11:00,
2013-03-09 03:16:00,20.1,19.9,30.34,West,270,0.0,0.0,99,0.00,CLR,,0.00,WeatherDisplay:10.37,2013-03-09 08:16:00,
2013-03-09 03:21:00,20.1,19.9,30.34,ESE,112,0.0,0.0,99,0.00,CLR,,0.00,WeatherDisplay:10.37,2013-03-09 08:21:00,
2013-03-09 03:26:00,19.9,19.7,30.33,WNW,292,0.0,0.0,99,0.00,CLR,,0.00,WeatherDisplay:10.37,2013-03-09 08:26:00,
2013-03-09 03:31:00,19.6,19.4,30.33,WNW,292,0.0,0.0,99,0.00,CLR,,0.00,WeatherDisplay:10.37,2013-03-09 08:31:00,
2013-03-09 03:36:00,19.9,19.7,30.33,West,270,0.0,0.0,99,0.00,CLR,,0.00,WeatherDisplay:10.37,2013-03-09 08:36:00,
2013-03-09 03:41:00,19.6,19.4,30.33,NNE,22,0.0,0.0,99,0.00,CLR,,0.00,WeatherDisplay:10.37,2013-03-09 08:41:00,
2013-03-09 03:46:00,19.6,19.4,30.33,NE,45,0.0,0.0,99,0.00,CLR,,0.00,WeatherDisplay:10.37,2013-03-09 08:46:00,
2013-03-09 03:51:00,19.4,19.2,30.33,WNW,292,0.0,0.0,99,0.00,CLR,,0.00,WeatherDisplay:10.37,2013-03-09 08:51:00,
2013-03-09 03:56:00,19.4,19.2,30.33,WNW,292,0.0,0.0,99,0.00,CLR,,0.00,WeatherDisplay:10.37,2013-03-09 08:56:00,
2013-03-09 04:02:00,19.8,19.6,30.34,WNW,292,0.0,0.0,99,0.00,CLR,,0.00,WeatherDisplay:10.37,2013-03-09 09:02:00,
2013-03-09 04:07:00,19.8,19.6,30.34,SW,225,0.0,0.0,99,0.00,CLR,,0.00,WeatherDisplay:10.37,2013-03-09 09:07:00,
2013-03-09 04:12:00,19.8,19.6,30.34,West,270,0.0,0.0,99,0.00,CLR,,0.00,WeatherDisplay:10.37,2013-03-09 09:12:00,
2013-03-09 04:17:00,19.8,19.6,30.34,SE,135,0.0,0.0,99,0.00,CLR,,0.00,WeatherDisplay:10.37,2013-03-09 09:17:00,
2013-03-09 04:22:00,19.0,18.0,30.34,NE,45,0.0,0.0,96,0.00,CLR,,0.00,WeatherDisplay:10.37,2013-03-09 09:22:00,
2013-03-09 04:27:00,18.9,18.2,30.34,WNW,292,0.0,0.0,97,0.00,CLR,,0.00,WeatherDisplay:10.37,2013-03-09 09:27:00,
2013-03-09 04:32:00,19.0,18.5,30.34,NE,45,0.0,0.0,98,0.00,CLR,,0.00,WeatherDisplay:10.37,2013-03-09 09:32:00,
2013-03-09 04:37:00,19.2,19.0,30.34,WSW,248,0.0,0.0,99,0.00,CLR,,0.00,WeatherDisplay:10.37,2013-03-09 09:37:00,
2013-03-09 04:42:00,19.0,18.3,30.34,NE,45,0.0,0.0,97,0.00,CLR,,0.00,WeatherDisplay:10.37,2013-03-09 09:42:00,
2013-03-09 04:47:00,19.2,18.7,30.34,NNW,338,0.0,0.0,98,0.00,CLR,,0.00,WeatherDisplay:10.37,2013-03-09 09:47:00,
2013-03-09 04:52:00,18.7,18.2,30.34,NNW,338,0.0,0.0,98,0.00,CLR,,0.00,WeatherDisplay:10.37,2013-03-09 09:52:00,
2013-03-09 04:57:00,18.5,18.3,30.34,WNW,292,0.0,0.0,99,0.00,CLR,,0.00,WeatherDisplay:10.37,2013-03-09 09:57:00,
2013-03-09 05:02:00,18.9,18.7,30.34,ENE,68,0.0,0.0,99,0.00,CLR,,0.00,WeatherDisplay:10.37,2013-03-09 10:02:00,
2013-03-09 05:07:00,18.7,18.5,30.34,NNW,338,0.0,0.0,99,0.00,CLR,,0.00,WeatherDisplay:10.37,2013-03-09 10:07:00,
2013-03-09 05:12:00,18.7,18.5,30.34,North,360,0.0,0.0,99,0.00,CLR,,0.00,WeatherDisplay:10.37,2013-03-09 10:12:00,
2013-03-09 05:17:00,19.0,18.8,30.34,WSW,248,0.0,0.0,99,0.00,CLR,,0.00,WeatherDisplay:10.37,2013-03-09 10:17:00,
2013-03-09 05:22:00,18.7,18.5,30.34,NNE,22,0.0,0.0,99,0.00,CLR,,0.00,WeatherDisplay:10.37,2013-03-09 10:22:00,
2013-03-09 05:27:00,18.7,18.2,30.34,NNE,22,0.0,0.0,98,0.00,CLR,,0.00,WeatherDisplay:10.37,2013-03-09 10:27:00,
2013-03-09 05:32:00,18.5,18.0,30.34,NNE,22,0.0,0.0,98,0.00,CLR,,0.00,WeatherDisplay:10.37,2013-03-09 10:32:00,
2013-03-09 05:37:00,18.1,17.4,30.34,WNW,292,0.0,0.0,97,0.00,CLR,,0.00,WeatherDisplay:10.37,2013-03-09 10:37:00,
2013-03-09 05:42:00,18.3,17.8,30.35,NNE,22,0.0,0.0,98,0.00,CLR,,0.00,WeatherDisplay:10.37,2013-03-09 10:42:00,
2013-03-09 05:47:00,18.5,18.0,30.35,NNW,338,0.0,0.0,98,0.00,CLR,,0.00,WeatherDisplay:10.37,2013-03-09 10:47:00,
2013-03-09 05:52:00,18.3,17.8,30.34,NNW,338,0.0,0.0,98,0.00,CLR,,0.00,WeatherDisplay:10.37,2013-03-09 10:52:00,
2013-03-09 05:57:00,18.5,18.0,30.34,East,90,0.0,0.0,98,0.00,CLR,,0.00,WeatherDisplay:10.37,2013-03-09 10:57:00,
2013-03-09 06:02:00,18.0,17.3,30.34,WNW,292,0.0,0.0,97,0.00,CLR,,0.00,WeatherDisplay:10.37,2013-03-09 11:02:00,
2013-03-09 06:07:00,17.6,17.4,30.34,NW,315,0.0,0.0,99,0.00,CLR,,0.00,WeatherDisplay:10.37,2013-03-09 11:07:00,
2013-03-09 06:12:00,17.8,17.6,30.34,WNW,292,0.0,0.0,99,0.00,CLR,,0.00,WeatherDisplay:10.37,2013-03-09 11:12:00,
2013-03-09 06:17:00,17.8,17.6,30.35,NW,315,0.0,0.0,99,0.00,CLR,,0.00,WeatherDisplay:10.37,2013-03-09 11:17:00,
2013-03-09 06:22:00,17.8,17.6,30.35,ENE,68,0.0,0.0,99,0.00,CLR,,0.00,WeatherDisplay:10.37,2013-03-09 11:22:00,
2013-03-09 06:27:00,18.0,17.8,30.35,WNW,292,0.0,0.0,99,0.00,CLR,,0.00,WeatherDisplay:10.37,2013-03-09 11:27:00,
2013-03-09 06:32:00,18.0,17.8,30.35,NNW,338,0.0,0.0,99,0.00,CLR,,0.00,WeatherDisplay:10.37,2013-03-09 11:32:00,
2013-03-09 06:37:00,18.3,18.1,30.35,SW,225,0.0,0.0,99,0.00,CLR,,0.00,WeatherDisplay:10.37,2013-03-09 11:37:00,
2013-03-09 06:42:00,18.3,18.1,30.35,SW,225,0.0,0.0,99,0.00,CLR,,0.00,WeatherDisplay:10.37,2013-03-09 11:42:00,
2013-03-09 06:47:00,18.3,17.6,30.35,NNW,338,0.0,0.0,97,0.00,CLR,,0.00,WeatherDisplay:10.37,2013-03-09 11:47:00,
2013-03-09 06:52:00,18.0,17.3,30.35,ENE,68,0.0,0.0,97,0.00,CLR,,0.00,WeatherDisplay:10.37,2013-03-09 11:52:00,
2013-03-09 06:57:00,18.7,18.5,30.35,NNE,22,0.0,0.0,99,0.00,CLR,,0.00,WeatherDisplay:10.37,2013-03-09 11:57:00,
2013-03-09 07:02:00,18.5,17.8,30.35,NW,315,0.0,0.0,97,0.00,CLR,,0.00,WeatherDisplay:10.37,2013-03-09 12:02:00,
2013-03-09 07:07:00,18.3,17.6,30.36,NNE,22,0.0,0.0,97,0.00,CLR,,0.00,WeatherDisplay:10.37,2013-03-09 12:07:00,
2013-03-09 07:12:00,18.5,17.6,30.36,NNE,22,0.0,0.0,96,0.00,CLR,,0.00,WeatherDisplay:10.37,2013-03-09 12:12:00,
2013-03-09 07:17:00,18.7,17.5,30.36,ENE,68,0.0,0.0,95,0.00,CLR,,0.00,WeatherDisplay:10.37,2013-03-09 12:17:00,
2013-03-09 07:22:00,19.6,19.1,30.36,East,90,0.0,0.0,98,0.00,CLR,,0.00,WeatherDisplay:10.37,2013-03-09 12:22:00,
2013-03-09 07:27:00,19.6,19.1,30.37,East,90,0.0,0.0,98,0.00,CLR,,0.00,WeatherDisplay:10.37,2013-03-09 12:27:00,
2013-03-09 07:32:00,19.4,18.2,30.37,North,360,0.0,0.0,95,0.00,CLR,,0.00,WeatherDisplay:10.37,2013-03-09 12:32:00,
2013-03-09 07:37:00,19.8,18.8,30.37,NNE,22,0.0,0.0,96,0.00,CLR,,0.00,WeatherDisplay:10.37,2013-03-09 12:37:00,
2013-03-09 07:42:00,20.1,18.9,30.38,North,360,0.0,0.0,95,0.00,CLR,,0.00,WeatherDisplay:10.37,2013-03-09 12:42:00,
2013-03-09 07:47:00,21.0,20.5,30.38,SW,225,0.0,0.0,98,0.00,CLR,,0.00,WeatherDisplay:10.37,2013-03-09 12:47:00,
2013-03-09 07:52:00,21.0,20.3,30.38,WSW,248,0.0,0.0,97,0.00,CLR,,0.00,WeatherDisplay:10.37,2013-03-09 12:52:00,
2013-03-09 07:57:00,21.6,21.1,30.38,NNE,22,0.0,0.0,98,0.00,CLR,,0.00,WeatherDisplay:10.37,2013-03-09 12:57:00,
2013-03-09 08:02:00,22.8,22.3,30.38,ENE,68,0.0,0.0,98,0.00,CLR,,0.00,WeatherDisplay:10.37,2013-03-09 13:02:00,
2013-03-09 08:07:00,25.2,25.0,30.38,East,90,0.0,0.0,99,0.00,CLR,,0.00,WeatherDisplay:10.37,2013-03-09 13:07:00,
2013-03-09 08:12:00,27.7,27.5,30.38,SE,135,0.0,0.0,99,0.00,CLR,,0.00,WeatherDisplay:10.37,2013-03-09 13:12:00,
2013-03-09 08:17:00,29.1,28.1,30.37,ENE,68,0.0,0.0,96,0.00,CLR,,0.00,WeatherDisplay:10.37,2013-03-09 13:17:00,
2013-03-09 08:22:00,33.1,32.9,30.37,ESE,112,0.0,0.0,99,0.00,CLR,,0.00,WeatherDisplay:10.37,2013-03-09 13:22:00,
2013-03-09 08:27:00,34.2,33.7,30.37,East,90,0.0,0.0,98,0.00,CLR,,0.00,WeatherDisplay:10.37,2013-03-09 13:27:00,
2013-03-09 08:32:00,36.0,33.6,30.37,NE,45,0.0,0.0,91,0.00,CLR,,0.00,WeatherDisplay:10.37,2013-03-09 13:32:00,
2013-03-09 08:37:00,38.3,32.4,30.37,ENE,68,0.0,0.0,79,0.00,CLR,,0.00,WeatherDisplay:10.37,2013-03-09 13:37:00,
2013-03-09 08:42:00,39.9,30.9,30.37,East,90,0.0,0.0,70,0.00,CLR,,0.00,WeatherDisplay:10.37,2013-03-09 13:42:00,
2013-03-09 08:47:00,41.0,30.5,30.37,NNE,22,1.1,2.3,66,0.00,CLR,,0.00,WeatherDisplay:10.37,2013-03-09 13:47:00,
2013-03-09 08:52:00,42.1,30.4,30.37,ESE,112,0.0,2.1,63,0.00,CLR,,0.00,WeatherDisplay:10.37,2013-03-09 13:52:00,
2013-03-09 08:57:00,43.3,29.5,30.37,ENE,68,0.0,0.0,58,0.00,CLR,,0.00,WeatherDisplay:10.37,2013-03-09 13:57:00,
2013-03-09 09:02:00,33.3,26.5,30.36,NE,45,2.2,2.7,76,0.00,CLR,,0.00,WeatherDisplay:10.37,2013-03-09 14:02:00,
2013-03-09 09:07:00,33.8,26.1,30.36,NE,45,4.0,4.6,73,0.00,CLR,,0.00,WeatherDisplay:10.37,2013-03-09 14:07:00,
2013-03-09 09:12:00,34.3,26.9,30.36,East,90,1.9,3.5,74,0.00,CLR,,0.00,WeatherDisplay:10.37,2013-03-09 14:12:00,
2013-03-09 09:17:00,34.0,26.6,30.36,SSE,158,1.6,2.7,74,0.00,CLR,,0.00,WeatherDisplay:10.37,2013-03-09 14:17:00,
2013-03-09 09:22:00,34.5,26.7,30.36,North,360,3.1,4.6,73,0.00,CLR,,0.00,WeatherDisplay:10.37,2013-03-09 14:22:00,
2013-03-09 09:28:00,34.9,27.1,30.35,NW,315,2.9,3.5,73,0.00,CLR,,0.00,WeatherDisplay:10.37,2013-03-09 14:28:00,
2013-03-09 09:33:00,35.1,26.6,30.35,South,180,0.8,2.1,71,0.00,CLR,,0.00,WeatherDisplay:10.37,2013-03-09 14:33:00,
2013-03-09 09:38:00,35.6,27.5,30.35,South,180,2.2,2.7,72,0.00,CLR,,0.00,WeatherDisplay:10.37,2013-03-09 14:38:00,
2013-03-09 09:43:00,36.9,27.3,30.35,East,90,3.3,4.6,68,0.00,CLR,,0.00,WeatherDisplay:10.37,2013-03-09 14:43:00,
2013-03-09 09:48:00,37.2,28.0,30.35,NE,45,2.1,2.7,69,0.00,CLR,,0.00,WeatherDisplay:10.37,2013-03-09 14:48:00,
2013-03-09 09:53:00,36.3,27.8,30.35,WNW,292,4.6,4.6,71,0.00,CLR,,0.00,WeatherDisplay:10.37,2013-03-09 14:53:00,
2013-03-09 09:58:00,37.2,28.0,30.35,NE,45,4.4,5.8,69,0.00,CLR,,0.00,WeatherDisplay:10.37,2013-03-09 14:58:00,
2013-03-09 10:03:00,37.2,27.6,30.35,SSW,202,3.3,3.5,68,0.00,CLR,,0.00,WeatherDisplay:10.37,2013-03-09 15:03:00,
2013-03-09 10:08:00,36.9,28.0,30.35,WNW,292,1.4,1.4,70,0.00,CLR,,0.00,WeatherDisplay:10.37,2013-03-09 15:08:00,
2013-03-09 10:13:00,36.9,28.0,30.35,WNW,292,1.4,1.4,70,0.00,CLR,,0.00,WeatherDisplay:10.37,2013-03-09 15:13:00,
2013-03-09 10:18:00,39.4,28.2,30.34,SE,135,2.8,3.4,64,0.00,CLR,,0.00,WeatherDisplay:10.37,2013-03-09 15:18:00,
2013-03-09 10:23:00,38.7,27.9,30.34,West,270,3.4,3.5,65,0.00,CLR,,0.00,WeatherDisplay:10.37,2013-03-09 15:23:00,
2013-03-09 10:28:00,38.7,27.9,30.34,West,270,3.4,3.5,65,0.00,CLR,,0.00,WeatherDisplay:10.37,2013-03-09 15:28:00,
2013-03-09 10:33:00,38.7,27.9,30.34,ENE,68,4.6,4.6,65,0.00,CLR,,0.00,WeatherDisplay:10.37,2013-03-09 15:33:00,
2013-03-09 10:38:00,38.7,27.9,30.34,ENE,68,4.6,4.6,65,0.00,CLR,,0.00,WeatherDisplay:10.37,2013-03-09 15:38:00,
2013-03-09 10:43:00,38.7,27.9,30.34,ENE,68,4.6,4.6,65,0.00,CLR,,0.00,WeatherDisplay:10.37,2013-03-09 15:43:00,
2013-03-09 10:48:00,38.7,27.9,30.34,ENE,68,4.6,4.6,65,0.00,CLR,,0.00,WeatherDisplay:10.37,2013-03-09 15:48:00,
2013-03-09 10:53:00,38.7,27.9,30.34,ENE,68,4.6,4.6,65,0.00,CLR,,0.00,WeatherDisplay:10.37,2013-03-09 15:53:00,
2013-03-09 10:58:00,38.7,27.9,30.34,ENE,68,4.6,4.6,65,0.00,CLR,,0.00,WeatherDisplay:10.37,2013-03-09 15:58:00,
2013-03-09 11:03:00,38.7,27.9,30.34,ENE,68,4.6,4.6,65,0.00,CLR,,0.00,WeatherDisplay:10.37,2013-03-09 16:03:00,
2013-03-09 11:08:00,38.7,27.9,30.34,ENE,68,4.6,4.6,65,0.00,CLR,,0.00,WeatherDisplay:10.37,2013-03-09 16:08:00,
2013-03-09 11:13:00,38.7,27.9,30.34,ENE,68,4.6,4.6,65,0.00,CLR,,0.00,WeatherDisplay:10.37,2013-03-09 16:13:00,
2013-03-09 11:18:00,38.7,27.9,30.34,ENE,68,4.6,4.6,65,0.00,CLR,,0.00,WeatherDisplay:10.37,2013-03-09 16:18:00,
2013-03-09 11:23:00,38.7,27.9,30.34,ENE,68,4.6,4.6,65,0.00,CLR,,0.00,WeatherDisplay:10.37,2013-03-09 16:23:00,
2013-03-09 11:28:00,38.7,27.9,30.34,ENE,68,4.6,4.6,65,0.00,CLR,,0.00,WeatherDisplay:10.37,2013-03-09 16:28:00,
2013-03-09 11:33:00,38.7,27.9,30.34,ENE,68,4.6,4.6,65,0.00,CLR,,0.00,WeatherDisplay:10.37,2013-03-09 16:33:00,
2013-03-09 11:38:00,38.7,27.9,30.34,ENE,68,4.6,4.6,65,0.00,CLR,,0.00,WeatherDisplay:10.37,2013-03-09 16:38:00,
2013-03-09 11:43:00,38.7,27.9,30.34,ENE,68,4.6,4.6,65,0.00,CLR,,0.00,WeatherDisplay:10.37,2013-03-09 16:43:00,
2013-03-09 11:48:00,38.7,27.9,30.34,ENE,68,4.6,4.6,65,0.00,CLR,,0.00,WeatherDisplay:10.37,2013-03-09 16:48:00,
2013-03-09 11:53:00,38.7,27.9,30.34,ENE,68,4.6,4.6,65,0.00,CLR,,0.00,WeatherDisplay:10.37,2013-03-09 16:53:00,
2013-03-09 11:58:00,38.7,27.9,30.34,ENE,68,4.6,4.6,65,0.00,CLR,,0.00,WeatherDisplay:10.37,2013-03-09 16:58:00,
2013-03-09 12:03:00,38.7,27.9,30.34,ENE,68,4.6,4.6,65,0.00,CLR,,0.00,WeatherDisplay:10.37,2013-03-09 17:03:00,
2013-03-09 12:09:00,38.7,27.9,30.34,ENE,68,4.6,4.6,65,0.00,CLR,,0.00,WeatherDisplay:10.37,2013-03-09 17:09:00,
2013-03-09 12:14:00,38.7,27.9,30.34,ENE,68,4.6,4.6,65,0.00,CLR,,0.00,WeatherDisplay:10.37,2013-03-09 17:14:00,
2013-03-09 12:19:00,38.7,27.9,30.34,ENE,68,4.6,4.6,65,0.00,CLR,,0.00,WeatherDisplay:10.37,2013-03-09 17:19:00,
2013-03-09 12:24:00,38.7,27.9,30.34,ENE,68,4.6,4.6,65,0.00,CLR,,0.00,WeatherDisplay:10.37,2013-03-09 17:24:00,
2013-03-09 12:29:00,38.7,27.9,30.34,ENE,68,4.6,4.6,65,0.00,CLR,,0.00,WeatherDisplay:10.37,2013-03-09 17:29:00,
2013-03-09 12:34:00,38.7,27.9,30.34,ENE,68,4.6,4.6,65,0.00,CLR,,0.00,WeatherDisplay:10.37,2013-03-09 17:34:00,
2013-03-09 12:39:00,38.7,27.9,30.34,ENE,68,4.6,4.6,65,0.00,CLR,,0.00,WeatherDisplay:10.37,2013-03-09 17:39:00,
2013-03-09 12:44:00,38.7,27.9,30.34,ENE,68,4.6,4.6,65,0.00,CLR,,0.00,WeatherDisplay:10.37,2013-03-09 17:44:00,
2013-03-09 12:49:00,38.7,27.9,30.34,ENE,68,4.6,4.6,65,0.00,CLR,,0.00,WeatherDisplay:10.37,2013-03-09 17:49:00,
2013-03-09 12:54:00,38.7,27.9,30.34,ENE,68,4.6,4.6,65,0.00,CLR,,0.00,WeatherDisplay:10.37,2013-03-09 17:54:00,
2013-03-09 12:59:00,38.7,27.9,30.34,ENE,68,4.6,4.6,65,0.00,CLR,,0.00,WeatherDisplay:10.37,2013-03-09 17:59:00,
2013-03-09 13:04:00,38.7,27.9,30.34,ENE,68,4.6,4.6,65,0.00,CLR,,0.00,WeatherDisplay:10.37,2013-03-09 18:04:00,
2013-03-09 13:09:00,38.7,27.9,30.34,ENE,68,4.6,4.6,65,0.00,CLR,,0.00,WeatherDisplay:10.37,2013-03-09 18:09:00,
2013-03-09 13:14:00,38.7,27.9,30.34,ENE,68,4.6,4.6,65,0.00,CLR,,0.00,WeatherDisplay:10.37,2013-03-09 18:14:00,
2013-03-09 13:19:00,38.7,27.9,30.34,ENE,68,4.6,4.6,65,0.00,CLR,,0.00,WeatherDisplay:10.37,2013-03-09 18:19:00,
2013-03-09 13:24:00,38.7,27.9,30.34,ENE,68,4.6,4.6,65,0.00,CLR,,0.00,WeatherDisplay:10.37,2013-03-09 18:24:00,
2013-03-09 13:29:00,38.7,27.9,30.34,ENE,68,4.6,4.6,65,0.00,CLR,,0.00,WeatherDisplay:10.37,2013-03-09 18:29:00,
2013-03-09 13:34:00,38.7,27.9,30.34,ENE,68,4.6,4.6,65,0.00,CLR,,0.00,WeatherDisplay:10.37,2013-03-09 18:34:00,
2013-03-09 13:39:00,38.7,27.9,30.34,ENE,68,4.6,4.6,65,0.00,CLR,,0.00,WeatherDisplay:10.37,2013-03-09 18:39:00,
2013-03-09 13:44:00,38.7,27.9,30.34,ENE,68,4.6,4.6,65,0.00,CLR,,0.00,WeatherDisplay:10.37,2013-03-09 18:44:00,
2013-03-09 13:49:00,38.7,27.9,30.34,ENE,68,4.6,4.6,65,0.00,CLR,,0.00,WeatherDisplay:10.37,2013-03-09 18:49:00,
2013-03-09 14:08:00,38.7,27.9,30.34,ENE,68,0.0,4.6,65,0.00,CLR,,0.00,WeatherDisplay:10.37,2013-03-09 19:08:00,
2013-03-09 14:13:00,38.7,27.9,30.34,ENE,68,4.6,4.6,65,0.00,CLR,,0.00,WeatherDisplay:10.37,2013-03-09 19:13:00,
2013-03-09 14:18:00,38.7,27.9,30.34,ENE,68,4.6,4.6,65,0.00,CLR,,0.00,WeatherDisplay:10.37,2013-03-09 19:18:00,
2013-03-09 14:23:00,38.7,27.9,30.34,ENE,68,4.6,4.6,65,0.00,CLR,,0.00,WeatherDisplay:10.37,2013-03-09 19:23:00,
2013-03-09 14:28:00,38.7,27.9,30.34,ENE,68,4.6,4.6,65,0.00,CLR,,0.00,WeatherDisplay:10.37,2013-03-09 19:28:00,
2013-03-09 14:33:00,38.7,27.9,30.34,ENE,68,4.6,4.6,65,0.00,CLR,,0.00,WeatherDisplay:10.37,2013-03-09 19:33:00,
2013-03-09 14:38:00,38.7,27.9,30.34,ENE,68,0.0,4.6,65,0.00,CLR,,0.00,WeatherDisplay:10.37,2013-03-09 19:38:00,
2013-03-09 14:43:00,55.8,29.2,30.24,South,180,2.1,4.6,36,0.00,CLR,,0.00,WeatherDisplay:10.37,2013-03-09 19:43:00,
2013-03-09 14:48:00,56.7,28.6,30.24,SE,135,2.8,3.5,34,0.00,CLR,,0.00,WeatherDisplay:10.37,2013-03-09 19:48:00,
2013-03-09 14:54:00,56.8,27.2,30.24,ESE,112,3.9,4.6,32,0.00,CLR,,0.00,WeatherDisplay:10.37,2013-03-09 19:54:00,
2013-03-09 14:59:00,57.6,27.9,30.24,SE,135,2.2,3.5,32,0.00,CLR,,0.00,WeatherDisplay:10.37,2013-03-09 19:59:00,
2013-03-09 15:04:00,56.8,27.2,30.24,NNE,22,5.0,5.8,32,0.00,CLR,,0.00,WeatherDisplay:10.37,2013-03-09 20:04:00,
2013-03-09 15:09:00,57.0,28.1,30.24,NW,315,0.6,3.5,33,0.00,CLR,,0.00,WeatherDisplay:10.37,2013-03-09 20:09:00,
2013-03-09 15:14:00,57.2,28.3,30.23,WNW,292,3.7,5.8,33,0.00,CLR,,0.00,WeatherDisplay:10.37,2013-03-09 20:14:00,
2013-03-09 15:19:00,57.2,28.3,30.23,SSW,202,3.8,5.8,33,0.00,CLR,,0.00,WeatherDisplay:10.37,2013-03-09 20:19:00,
2013-03-09 15:24:00,58.1,28.4,30.23,WSW,248,3.0,4.6,32,0.00,CLR,,0.00,WeatherDisplay:10.37,2013-03-09 20:24:00,
2013-03-09 15:29:00,57.6,27.9,30.23,ESE,112,3.5,5.8,32,0.00,CLR,,0.00,WeatherDisplay:10.37,2013-03-09 20:29:00,
2013-03-09 15:34:00,57.6,27.9,30.23,WNW,292,4.3,5.8,32,0.00,CLR,,0.00,WeatherDisplay:10.37,2013-03-09 20:34:00,
2013-03-09 15:39:00,57.0,26.6,30.22,NNE,22,3.1,4.0,31,0.00,CLR,,0.00,WeatherDisplay:10.37,2013-03-09 20:39:00,
2013-03-09 15:44:00,57.9,26.6,30.22,NNE,22,4.6,4.6,30,0.00,CLR,,0.00,WeatherDisplay:10.37,2013-03-09 20:44:00,
2013-03-09 15:49:00,57.7,27.2,30.22,NNE,22,3.9,4.6,31,0.00,CLR,,0.00,WeatherDisplay:10.37,2013-03-09 20:49:00,
2013-03-09 15:54:00,58.3,27.8,30.22,NNE,22,2.2,2.7,31,0.00,CLR,,0.00,WeatherDisplay:10.37,2013-03-09 20:54:00,
2013-03-09 15:59:00,57.4,26.2,30.22,NW,315,1.6,4.6,30,0.00,CLR,,0.00,WeatherDisplay:10.37,2013-03-09 20:59:00,
2013-03-09 16:04:00,58.3,27.8,30.21,NNE,22,3.1,3.5,31,0.00,CLR,,0.00,WeatherDisplay:10.37,2013-03-09 21:04:00,
2013-03-09 16:09:00,58.3,27.0,30.21,NNE,22,3.7,4.0,30,0.00,CLR,,0.00,WeatherDisplay:10.37,2013-03-09 21:09:00,
2013-03-09 16:14:00,58.5,26.3,30.21,ENE,68,3.3,5.8,29,0.00,CLR,,0.00,WeatherDisplay:10.37,2013-03-09 21:14:00,
2013-03-09 16:19:00,58.6,26.4,30.21,South,180,4.5,6.9,29,0.00,CLR,,0.00,WeatherDisplay:10.37,2013-03-09 21:19:00,
2013-03-09 16:24:00,58.1,26.8,30.20,NE,45,4.2,5.8,30,0.00,CLR,,0.00,WeatherDisplay:10.37,2013-03-09 21:24:00,
2013-03-09 16:29:00,57.7,26.4,30.20,NNE,22,3.8,5.9,30,0.00,CLR,,0.00,WeatherDisplay:10.37,2013-03-09 21:29:00,
2013-03-09 16:34:00,57.7,27.2,30.20,NE,45,4.3,5.8,31,0.00,CLR,,0.00,WeatherDisplay:10.37,2013-03-09 21:34:00,
2013-03-09 16:39:00,57.7,27.2,30.20,NE,45,4.4,5.8,31,0.00,CLR,,0.00,WeatherDisplay:10.37,2013-03-09 21:39:00,
2013-03-09 16:44:00,57.4,27.7,30.20,ENE,68,2.7,4.0,32,0.00,CLR,,0.00,WeatherDisplay:10.37,2013-03-09 21:44:00,
2013-03-09 16:49:00,58.1,28.4,30.20,NE,45,3.1,6.6,32,0.00,CLR,,0.00,WeatherDisplay:10.37,2013-03-09 21:49:00,
2013-03-09 16:54:00,57.0,28.1,30.20,NE,45,3.0,5.3,33,0.00,CLR,,0.00,WeatherDisplay:10.37,2013-03-09 21:54:00,
2013-03-09 16:59:00,57.2,29.1,30.20,ENE,68,2.2,3.5,34,0.00,CLR,,0.00,WeatherDisplay:10.37,2013-03-09 21:59:00,
2013-03-09 17:04:00,57.9,28.2,30.20,West,270,0.7,2.1,32,0.00,CLR,,0.00,WeatherDisplay:10.37,2013-03-09 22:04:00,
2013-03-09 17:09:00,57.6,28.7,30.20,ESE,112,3.2,3.5,33,0.00,CLR,,0.00,WeatherDisplay:10.37,2013-03-09 22:09:00,
2013-03-09 17:14:00,57.7,27.2,30.19,East,90,1.9,2.7,31,0.00,CLR,,0.00,WeatherDisplay:10.37,2013-03-09 22:14:00,
2013-03-09 17:20:00,58.5,27.1,30.19,NE,45,2.0,2.3,30,0.00,CLR,,0.00,WeatherDisplay:10.37,2013-03-09 22:20:00,
2013-03-09 17:25:00,60.1,26.9,30.19,WNW,292,0.0,0.0,28,0.00,CLR,,0.00,WeatherDisplay:10.37,2013-03-09 22:25:00,
2013-03-09 17:30:00,60.8,29.1,30.19,NNE,22,0.4,2.1,30,0.00,CLR,,0.00,WeatherDisplay:10.37,2013-03-09 22:30:00,
2013-03-09 17:36:00,64.0,28.4,30.19,East,90,3.5,3.5,26,0.00,CLR,,0.00,WeatherDisplay:10.37,2013-03-09 22:36:00,
2013-03-09 17:41:00,61.3,28.7,30.20,NW,315,2.4,2.7,29,0.00,CLR,,0.00,WeatherDisplay:10.37,2013-03-09 22:41:00,
2013-03-09 17:46:00,60.1,30.1,30.20,NNE,22,0.0,0.0,32,0.00,CLR,,0.00,WeatherDisplay:10.37,2013-03-09 22:46:00,
2013-03-09 17:51:00,58.3,30.7,30.20,West,270,2.4,3.5,35,0.00,CLR,,0.00,WeatherDisplay:10.37,2013-03-09 22:51:00,
2013-03-09 17:56:00,57.0,28.9,30.20,West,270,0.0,0.0,34,0.00,CLR,,0.00,WeatherDisplay:10.37,2013-03-09 22:56:00,
2013-03-09 18:01:00,56.3,29.0,30.20,WSW,248,0.0,0.0,35,0.00,CLR,,0.00,WeatherDisplay:10.37,2013-03-09 23:01:00,
2013-03-09 18:06:00,54.3,29.8,30.20,NNW,338,0.0,0.0,39,0.00,SKC,,0.00,WeatherDisplay:10.37,2013-03-09 23:06:00,
2013-03-09 18:11:00,52.5,30.6,30.20,NNE,22,0.0,0.0,43,0.00,SKC,,0.00,WeatherDisplay:10.37,2013-03-09 23:11:00,
2013-03-09 18:16:00,52.2,32.0,30.20,NW,315,0.4,2.1,46,0.00,SKC,,0.00,WeatherDisplay:10.37,2013-03-09 23:16:00,
2013-03-09 18:21:00,50.9,30.3,30.20,NNW,338,0.0,0.0,45,0.00,-SN,,0.00,WeatherDisplay:10.37,2013-03-09 23:21:00,
2013-03-09 18:26:00,49.3,30.9,30.20,North,360,0.0,2.3,49,0.00,-SN,,0.00,WeatherDisplay:10.37,2013-03-09 23:26:00,
2013-03-09 18:31:00,48.4,31.1,30.20,NW,315,0.0,0.0,51,0.00,-SN,,0.00,WeatherDisplay:10.37,2013-03-09 23:31:00,
2013-03-09 18:36:00,47.5,31.2,30.20,NNW,338,1.7,2.3,53,0.00,OVC,,0.00,WeatherDisplay:10.37,2013-03-09 23:36:00,
2013-03-09 18:41:00,46.6,30.4,30.20,SW,225,0.0,0.0,53,0.00,CLR,,0.00,WeatherDisplay:10.37,2013-03-09 23:41:00,
2013-03-09 18:46:00,45.3,31.4,30.20,North,360,0.0,0.0,58,0.00,CLR,,0.00,WeatherDisplay:10.37,2013-03-09 23:46:00,
2013-03-09 18:51:00,44.8,31.3,30.20,WNW,292,0.0,0.0,59,0.00,CLR,,0.00,WeatherDisplay:10.37,2013-03-09 23:51:00,
2013-03-09 18:56:00,43.5,29.7,30.20,NW,315,0.0,0.0,58,0.00,CLR,,0.00,WeatherDisplay:10.37,2013-03-09 23:56:00,
2013-03-09 19:01:00,43.0,30.9,30.20,NNW,338,0.0,0.0,62,0.00,CLR,,0.00,WeatherDisplay:10.37,2013-03-10 00:01:00,
2013-03-09 19:06:00,42.4,31.1,30.20,NW,315,0.0,0.0,64,0.00,CLR,,0.00,WeatherDisplay:10.37,2013-03-10 00:06:00,
2013-03-09 19:11:00,41.4,30.1,30.20,NE,45,0.0,0.0,64,0.00,CLR,,0.00,WeatherDisplay:10.37,2013-03-10 00:11:00,
2013-03-09 19:16:00,41.2,30.7,30.20,West,270,0.0,0.0,66,0.00,CLR,,0.00,WeatherDisplay:10.37,2013-03-10 00:16:00,
2013-03-09 19:21:00,40.5,30.4,30.20,West,270,1.5,2.7,67,0.00,CLR,,0.00,WeatherDisplay:10.37,2013-03-10 00:21:00,
2013-03-09 19:26:00,39.9,29.8,30.20,NW,315,0.0,0.0,67,0.00,CLR,,0.00,WeatherDisplay:10.37,2013-03-10 00:26:00,
2013-03-09 19:31:00,39.2,29.5,30.20,NE,45,0.0,1.2,68,0.00,CLR,,0.00,WeatherDisplay:10.37,2013-03-10 00:31:00,
2013-03-09 19:36:00,39.0,29.7,30.20,NE,45,0.0,0.0,69,0.00,CLR,,0.00,WeatherDisplay:10.37,2013-03-10 00:36:00,
2013-03-09 19:41:00,38.5,29.9,30.20,West,270,1.4,2.3,71,0.00,CLR,,0.00,WeatherDisplay:10.37,2013-03-10 00:41:00,
2013-03-09 19:46:00,38.1,29.2,30.20,ENE,68,0.0,0.0,70,0.00,CLR,,0.00,WeatherDisplay:10.37,2013-03-10 00:46:00,
2013-03-09 19:51:00,37.8,29.2,30.20,NW,315,0.0,0.0,71,0.00,CLR,,0.00,WeatherDisplay:10.37,2013-03-10 00:51:00,
2013-03-09 19:56:00,36.9,29.4,30.20,NW,315,1.0,2.3,74,0.00,CLR,,0.00,WeatherDisplay:10.37,2013-03-10 00:56:00,
2013-03-09 20:01:00,36.5,28.7,30.20,WNW,292,0.0,0.0,73,0.00,CLR,,0.00,WeatherDisplay:10.37,2013-03-10 01:01:00,
2013-03-09 20:06:00,36.1,28.9,30.20,NNE,22,0.0,0.0,75,0.00,CLR,,0.00,WeatherDisplay:10.37,2013-03-10 01:06:00,
2013-03-09 20:12:00,35.8,29.0,30.20,NW,315,0.0,0.0,76,0.00,CLR,,0.00,WeatherDisplay:10.37,2013-03-10 01:12:00,
2013-03-09 20:17:00,35.1,28.3,30.20,WNW,292,2.1,2.3,76,0.00,CLR,,0.00,WeatherDisplay:10.37,2013-03-10 01:17:00,
2013-03-09 20:22:00,35.2,28.7,30.20,WNW,292,0.0,0.0,77,0.00,CLR,,0.00,WeatherDisplay:10.37,2013-03-10 01:22:00,
2013-03-09 20:27:00,34.9,28.4,30.20,NE,45,0.0,0.0,77,0.00,CLR,,0.00,WeatherDisplay:10.37,2013-03-10 01:27:00,
2013-03-09 21:06:00,32.7,27.5,30.19,North,6,0.0,0.0,81,0.00,CLR,CLR,0.00,WeatherDisplay:10.37,2013-03-10 02:06:00,
2013-03-09 21:12:00,32.4,27.5,30.19,NNW,332,0.0,0.0,82,0.00,CLR,CLR,0.00,WeatherDisplay:10.37,2013-03-10 02:12:00,
2013-03-09 21:20:00,32.2,27.3,30.19,WNW,292,0.0,0.0,82,0.00,CLR,,0.00,WeatherDisplay:10.37,2013-03-10 02:20:00,
2013-03-09 21:26:00,31.8,26.9,30.20,NW,315,0.0,0.0,82,0.00,CLR,,0.00,WeatherDisplay:10.37,2013-03-10 02:26:00,
2013-03-09 21:32:00,31.3,27.0,30.20,West,270,1.9,2.3,84,0.00,CLR,,0.00,WeatherDisplay:10.37,2013-03-10 02:32:00,
2013-03-09 21:38:00,31.1,26.8,30.19,NNW,338,2.1,2.7,84,0.00,CLR,,0.00,WeatherDisplay:10.37,2013-03-10 02:38:00,
2013-03-09 21:44:00,31.1,26.8,30.19,West,270,0.0,0.0,84,0.00,CLR,,0.00,WeatherDisplay:10.37,2013-03-10 02:44:00,
2013-03-09 21:50:00,30.9,26.6,30.19,West,270,0.0,0.0,84,0.00,CLR,,0.00,WeatherDisplay:10.37,2013-03-10 02:50:00,
2013-03-09 21:55:00,30.7,26.4,30.19,SW,225,0.0,0.0,84,0.00,CLR,,0.00,WeatherDisplay:10.37,2013-03-10 02:55:00,
2013-03-09 22:01:00,30.6,26.6,30.19,NNW,338,0.0,0.0,85,0.00,CLR,,0.00,WeatherDisplay:10.37,2013-03-10 03:01:00,
2013-03-09 22:07:00,30.7,26.4,30.19,WNW,292,0.0,0.0,84,0.00,CLR,,0.00,WeatherDisplay:10.37,2013-03-10 03:07:00,
2013-03-09 22:13:00,30.6,26.3,30.19,ENE,68,0.0,0.0,84,0.00,CLR,,0.00,WeatherDisplay:10.37,2013-03-10 03:13:00,
2013-03-09 22:18:00,30.4,26.4,30.19,SW,225,0.0,0.0,85,0.00,CLR,,0.00,WeatherDisplay:10.37,2013-03-10 03:18:00,
2013-03-09 22:24:00,30.4,26.1,30.19,WNW,292,0.0,0.0,84,0.00,CLR,,0.00,WeatherDisplay:10.37,2013-03-10 03:24:00,
2013-03-09 22:30:00,30.2,25.9,30.19,NNW,338,1.3,3.5,84,0.00,CLR,,0.00,WeatherDisplay:10.37,2013-03-10 03:30:00,
2013-03-09 22:36:00,30.2,25.9,30.19,North,360,0.0,0.0,84,0.00,CLR,,0.00,WeatherDisplay:10.37,2013-03-10 03:36:00,
2013-03-09 22:42:00,30.0,25.8,30.18,WNW,292,0.0,0.0,84,0.00,CLR,,0.00,WeatherDisplay:10.37,2013-03-10 03:42:00,
2013-03-09 22:48:00,29.8,25.6,30.18,West,270,0.0,0.0,84,0.00,CLR,,0.00,WeatherDisplay:10.37,2013-03-10 03:48:00,
2013-03-09 22:54:00,29.8,25.8,30.18,NW,315,0.0,0.0,85,0.00,CLR,,0.00,WeatherDisplay:10.37,2013-03-10 03:54:00,
2013-03-09 23:00:00,29.7,25.2,30.18,NNE,22,0.0,0.0,83,0.00,CLR,,0.00,WeatherDisplay:10.37,2013-03-10 04:00:00,
2013-03-09 23:06:00,29.7,25.7,30.18,WNW,292,0.0,0.0,85,0.00,CLR,,0.00,WeatherDisplay:10.37,2013-03-10 04:06:00,
2013-03-09 23:12:00,29.7,25.7,30.18,NNE,22,2.5,3.4,85,0.00,CLR,,0.00,WeatherDisplay:10.37,2013-03-10 04:12:00,
2013-03-09 23:17:00,29.7,25.7,30.17,WNW,292,2.2,2.7,85,0.00,CLR,,0.00,WeatherDisplay:10.37,2013-03-10 04:17:00,
2013-03-09 23:23:00,29.8,25.6,30.17,WNW,292,2.1,3.4,84,0.00,CLR,,0.00,WeatherDisplay:10.37,2013-03-10 04:23:00,
2013-03-09 23:29:00,30.2,25.9,30.17,NW,315,2.5,3.5,84,0.00,CLR,,0.00,WeatherDisplay:10.37,2013-03-10 04:29:00,
2013-03-09 23:35:00,30.4,26.1,30.17,NNW,338,0.0,0.0,84,0.00,CLR,,0.00,WeatherDisplay:10.37,2013-03-10 04:35:00,
2013-03-09 23:41:00,30.4,26.1,30.17,NNE,22,0.2,2.3,84,0.00,CLR,,0.00,WeatherDisplay:10.37,2013-03-10 04:41:00,
2013-03-09 23:47:00,30.4,25.9,30.17,West,270,0.0,2.3,83,0.00,CLR,,0.00,WeatherDisplay:10.37,2013-03-10 04:47:00,
2013-03-09 23:53:00,30.2,25.7,30.17,West,270,2.4,2.7,83,0.00,CLR,,0.00,WeatherDisplay:10.37,2013-03-10 04:53:00,
2013-03-09 23:59:00,30.6,25.8,30.17,West,270,1.9,2.7,82,0.00,CLR,,0.00,WeatherDisplay:10.37,2013-03-10 04:59:00,